Date String (YYYY-MM-DD hh:mm:ss) UTC,Instrument flags,Ambient pressure (hPa),Sample flow (lpm),Bypass flow (lpm),Sample temperature (°C),Ambient temperature (°C),ASC tube jacket temperature (°C),LED temperature (°C),Box temperature (°C),Sample RH (%),Span deviation,Mass concentration (μg/m³),Mass concentration (μg/m³),Mass concentration (μg/m³)
DateTimeUTC,F1_M11,P_M11,Q1_M11,Q2_M11,T1_M11,T2_M11,T3_M11,T4_M11,T5_M11,U1_M11,ZSPAN_M11,X0_M11,X2_M11,X1_M11
2022-11-07 08:00:00,,0826.5,5.00,0.00,22.1,20.7,00.0,31.0,23.9,12.2,0000.0,0007.18,0003.04,0002.12
2022-11-07 08:01:00,,0826.5,5.00,0.00,22.1,20.7,00.0,31.0,23.9,12.1,0000.0,0007.54,0003.08,0002.14
2022-11-07 08:02:00,,0826.5,4.99,0.00,22.1,20.6,00.0,31.0,23.9,12.1,0000.0,0007.59,0003.11,0002.15
2022-11-07 08:03:00,,0826.5,5.00,0.00,22.1,20.6,00.0,30.9,23.9,12.2,0000.0,0007.97,0003.09,0002.18
2022-11-07 08:04:00,,0826.5,5.00,0.00,22.1,20.6,00.0,30.9,23.9,12.4,0000.0,0008.16,0003.07,0002.20
2022-11-07 08:05:00,,0826.6,5.00,0.00,22.1,20.6,00.0,30.9,23.9,12.4,0000.0,0008.04,0003.06,0002.21
2022-11-07 08:06:00,,0826.5,5.01,0.00,22.0,20.6,00.0,30.9,23.8,12.3,0000.0,0008.20,0003.09,0002.25
2022-11-07 08:07:00,,0826.5,5.00,0.00,22.0,20.6,00.0,30.9,23.8,12.3,0000.0,0008.32,0003.10,0002.25
2022-11-07 08:08:00,,0826.5,5.01,0.00,22.0,20.5,00.0,30.9,23.8,12.3,0000.0,0008.27,0003.07,0002.25
2022-11-07 08:09:00,,0826.5,4.98,0.00,22.0,20.7,00.0,30.9,23.9,12.2,0000.0,0008.80,0003.03,0002.25
2022-11-07 08:10:00,,0826.5,5.02,0.00,22.1,21.5,00.0,30.9,24.1,12.2,0000.0,0009.84,0003.10,0002.25
2022-11-07 08:11:00,,0826.5,5.00,0.00,22.2,22.0,00.0,30.9,24.3,12.2,0000.0,0010.82,0003.13,0002.23
2022-11-07 08:12:00,,0826.5,4.98,0.00,22.2,21.8,00.0,30.9,24.3,12.2,0000.0,0010.97,0003.14,0002.23
2022-11-07 08:13:00,,0826.5,5.02,0.00,22.3,21.6,00.0,30.9,24.3,12.2,0000.0,0011.29,0003.13,0002.26
2022-11-07 08:14:00,,0826.5,5.00,0.00,22.3,21.4,00.0,31.0,24.3,12.1,0000.0,0010.46,0003.14,0002.26
2022-11-07 08:15:00,,0826.5,5.00,0.00,22.3,21.3,00.0,31.0,24.2,12.2,0000.0,0010.36,0003.15,0002.27
2022-11-07 08:16:00,,0826.4,5.00,0.00,22.3,21.2,00.0,31.0,24.2,12.3,0000.0,0010.87,0003.16,0002.26
2022-11-07 08:17:00,,0826.4,5.00,0.00,22.2,21.1,00.0,31.0,24.2,12.4,0000.0,0011.17,0003.16,0002.26
2022-11-07 08:18:00,,0826.4,4.99,0.00,22.2,21.0,00.0,31.0,24.1,12.4,0000.0,0011.09,0003.20,0002.29
2022-11-07 08:19:00,,0826.4,4.99,0.00,22.2,21.0,00.0,31.0,24.1,12.4,0000.0,0010.99,0003.25,0002.33
2022-11-07 08:20:00,,0826.4,5.00,0.00,22.2,20.9,00.0,31.0,24.1,12.4,0000.0,0010.42,0003.25,0002.35
2022-11-07 08:21:00,,0826.4,5.01,0.00,22.2,20.9,00.0,31.0,24.1,12.5,0000.0,0009.46,0003.23,0002.37
2022-11-07 08:22:00,,0826.5,5.01,0.00,22.2,20.9,00.0,31.0,24.1,12.5,0000.0,0008.41,0003.22,0002.40
2022-11-07 08:23:00,,0826.5,5.00,0.00,22.2,20.9,00.0,31.0,24.1,12.5,0000.0,0008.01,0003.23,0002.43
2022-11-07 08:24:00,,0826.5,4.99,0.00,22.2,20.8,00.0,31.0,24.1,12.5,0000.0,0007.85,0003.22,0002.42
2022-11-07 08:25:00,,0826.5,4.99,0.00,22.2,20.8,00.0,31.0,24.1,12.5,0000.0,0007.98,0003.23,0002.42
2022-11-07 08:26:00,,0826.4,5.01,0.00,22.2,20.8,00.0,31.0,24.1,12.5,0000.0,0008.07,0003.27,0002.43
2022-11-07 08:27:00,,0826.4,5.01,0.00,22.2,20.8,00.0,31.0,24.0,12.7,0000.0,0008.23,0003.27,0002.46
2022-11-07 08:28:00,,0826.3,5.00,0.00,22.2,20.7,00.0,31.0,24.0,12.8,0000.0,0007.95,0003.29,0002.48
2022-11-07 08:29:00,,0826.3,4.99,0.00,22.2,20.7,00.0,31.0,24.0,12.8,0000.0,0007.91,0003.30,0002.49
2022-11-07 08:30:00,,0826.3,4.99,0.00,22.2,20.7,00.0,31.0,24.0,12.9,0000.0,0007.86,0003.29,0002.48
2022-11-07 08:31:00,,0826.4,5.02,0.00,22.1,20.7,00.0,31.0,24.0,13.0,0000.0,0007.90,0003.32,0002.51
2022-11-07 08:32:00,,0826.2,4.99,0.00,22.1,20.7,00.0,31.0,24.0,13.0,0000.0,0007.90,0003.33,0002.52
2022-11-07 08:33:00,,0826.3,4.99,0.00,22.1,20.6,00.0,31.0,23.9,12.9,0000.0,0008.33,0003.33,0002.54
2022-11-07 08:34:00,,0826.4,5.01,0.00,22.1,20.6,00.0,31.0,23.9,13.0,0000.0,0009.02,0003.38,0002.56
2022-11-07 08:35:00,,0826.3,5.01,0.00,22.1,20.6,00.0,31.0,23.9,13.0,0000.0,0008.95,0003.42,0002.57
2022-11-07 08:36:00,,0826.4,5.00,0.00,22.1,20.6,00.0,30.9,23.9,13.0,0000.0,0009.35,0003.44,0002.59
2022-11-07 08:37:00,,0826.3,5.01,0.00,22.1,20.7,00.0,30.9,23.9,12.9,0000.0,0009.27,0003.47,0002.61
2022-11-07 08:38:00,,0826.3,4.99,0.00,22.1,21.4,00.0,30.9,24.1,12.9,0000.0,0008.77,0003.47,0002.60
2022-11-07 08:39:00,,0826.4,5.00,0.00,22.2,22.1,00.0,30.9,24.3,12.8,0000.0,0008.64,0003.47,0002.59
2022-11-07 08:40:00,,0826.3,5.00,0.00,22.3,21.9,00.0,31.0,24.4,12.8,0000.0,0008.99,0003.46,0002.57
2022-11-07 08:41:00,,0826.3,4.99,0.00,22.3,21.7,00.0,31.0,24.3,12.7,0000.0,0009.64,0003.44,0002.56
2022-11-07 08:42:00,,0826.4,5.01,0.00,22.3,21.5,00.0,31.0,24.3,12.7,0000.0,0009.86,0003.44,0002.55
2022-11-07 08:43:00,,0826.2,5.00,0.00,22.3,21.3,00.0,31.0,24.3,12.7,0000.0,0009.86,0003.43,0002.54
2022-11-07 08:44:00,,0826.2,5.00,0.00,22.3,21.2,00.0,31.0,24.2,12.6,0000.0,0009.67,0003.42,0002.50
2022-11-07 08:45:00,,0826.2,5.01,0.00,22.3,21.1,00.0,31.0,24.2,12.7,0000.0,0009.89,0003.41,0002.49
2022-11-07 08:46:00,,0826.2,5.00,0.00,22.3,21.0,00.0,31.0,24.2,12.8,0000.0,0009.97,0003.39,0002.51
2022-11-07 08:47:00,,0826.2,5.00,0.00,22.3,20.9,00.0,31.0,24.2,12.9,0000.0,0009.42,0003.36,0002.51
2022-11-07 08:48:00,,0826.1,5.00,0.00,22.3,20.9,00.0,31.0,24.2,12.9,0000.0,0009.30,0003.35,0002.50
2022-11-07 08:49:00,,0826.2,5.01,0.00,22.3,20.9,00.0,31.0,24.1,12.9,0000.0,0009.43,0003.35,0002.50
2022-11-07 08:50:00,,0826.2,5.00,0.00,22.2,20.8,00.0,31.0,24.1,12.9,0000.0,0010.03,0003.33,0002.49
2022-11-07 08:51:00,,0826.2,5.00,0.00,22.2,20.8,00.0,31.0,24.1,12.9,0000.0,0009.73,0003.32,0002.51
2022-11-07 08:52:00,,0826.2,5.00,0.00,22.2,20.8,00.0,31.0,24.1,12.9,0000.0,0009.14,0003.32,0002.51
2022-11-07 08:53:00,,0826.2,5.00,0.00,22.2,20.8,00.0,31.0,24.1,12.9,0000.0,0008.99,0003.34,0002.50
2022-11-07 08:54:00,,0826.2,4.99,0.00,22.2,20.8,00.0,31.0,24.1,12.9,0000.0,0009.90,0003.34,0002.50
2022-11-07 08:55:00,,0826.1,5.00,0.00,22.2,20.8,00.0,31.0,24.1,12.9,0000.0,0010.48,0003.36,0002.51
2022-11-07 08:56:00,,0826.2,4.99,0.00,22.2,20.8,00.0,31.0,24.1,12.9,0000.0,0009.52,0003.33,0002.50
2022-11-07 08:57:00,,0826.1,5.01,0.00,22.2,20.8,00.0,31.0,24.0,12.9,0000.0,0009.32,0003.29,0002.46
2022-11-07 08:58:00,,0826.2,5.01,0.00,22.2,20.7,00.0,31.0,24.0,13.0,0000.0,0009.58,0003.30,0002.42
2022-11-07 08:59:00,,0826.2,5.00,0.00,22.2,20.7,00.0,31.0,24.0,13.1,0000.0,0009.58,0003.27,0002.38
